Погода в Гёйгёле

Азербайджан     40°35′00″N   46°19′24″E
темп.,
°C
ветер,
м/с
пор.,
м/с
влажн.,
%
обл.,
%
осадки,
мм/ч
давл.,
гПа
погр.,
м
24 июля, сб
сб2401:00+18юз218544 1.6 100924
04:00+17всв118992 2.1 100941
07:00+17св118889 0.1 1010162
10:00+19св338189 0.1 1010601
13:00+18ссв218398 0.1 1011404
16:00+22св326770 0.3 1009925
19:00+23с216586 0.1 1009865
22:00+19ю228054 1.9 101229
25 июля, вс
вс2501:00+19ююв117758 0.0 101221
04:00+17ююз12815 0.0 101317
07:00+18юв117510 0.0 101476
10:00+21ссв436769 0.0 1014974
13:00+24ссв335265 0.1 10141485
16:00+26ссв234553 0.1 10121746
19:00+25св345130 0.0 1013355
22:00+20ююз44640 0.0 101648
26 июля, пн
пн2601:00+19ююз33620 0.0 101634
04:00+18ююз32640 0.0 101624
07:00+19ююз11630 0.0 101748
10:00+23св43540 0.0 1016834
13:00+27св64390 0.0 10151595
16:00+29св54350 0.0 10131662
19:00+27св34420 0.0 1013394
22:00+22ююз44530 0.0 101440
27 июля, вт
вт2701:00+21ююз445265 0.0 101444
04:00+20ююз22555 0.0 101421
07:00+20юв01580 0.0 101450
10:00+23ссв42510 0.0 1014782
13:00+27св54420 0.3 10121152
16:00+28св44371 1.6 10081339
19:00+24с225412 1.6 1011375
22:00+18всв237976 1.9 101488
28 июля, ср
ср2801:00+18зюз118384 0.6 101491
04:00+18ююз118472 0.9 101371
07:00+18в118191 0.3 101485
10:00+18ссв228395 0.8 1014320
13:00+17с2286100 1.3 1014382
16:00+17юз018792 3.1 1013196
19:00+19з117119 2.5 101364
22:00+15юз338195 2.7 101552